Flag for Australia Weather past 2 weeks in Alice Springs, Northern Territory, Australia

Now
64 °F

Passing clouds.


Feels Like: 64 °F
Forecast: 32 / 74 °F
Wind: 7 mph from Southeast

Location: Alice Springs Aerodrome

Current Time: Jul 29, 2015 at 2:40:16 PM

Latest Report: Jul 29, 2015 at 1:00 PM


Visibility: N/A

Pressure: 30.30 "Hg (28.30 "Hg at 581m altitude)

Humidity: 18%

Dew point: 19 °F

Location of Alice SpringsLocation

Historic Weather in Alice Springs — Graph

°F

Alice Springs temperature yesterday

Maximum temperature yesterday: 63 °F (at 3:30 PM)
Minimum temperature yesterday: 30 °F (at 7:30 AM)
Average temperature yesterday: 47 °F

Past Weeks' High & Low Weather Summary

 TemperatureHumidityPressure
High81 °F (Jul 23, 1:00 PM)93% (Jul 21, 6:00 AM)30.54 "Hg (Jul 21, 6:00 AM)
Low23 °F (Jul 20, 7:00 AM)1% (Jul 21, 3:00 PM)30.01 "Hg (Jul 23, 3:30 PM)
Average51 °F44%30.26 "Hg
* Reported Jul 14 12:30 PM — Jul 29 1:00 PM, Alice Springs, Weather by CustomWeather, © 2015

Note: Actual official high and low records may vary slightly from our data, if they occured in-between our weather recording intervals... More about our weather records

Advertising

Alice Springs weather history for previous 24 hours

 ConditionsComfort  
Time TempWeatherWind HumidityBarometerVisibility
1:00 PM
Wed, Jul 29
64 °FPassing clouds.7 mph18%30.30 "HgN/A
12:30 PM63 °FPassing clouds.7 mph17%30.33 "HgN/A
12:00 PM61 °FSunny.6 mph19%30.33 "Hg10 mi
11:30 AM59 °FSunny.9 mph21%30.33 "Hg10 mi
11:00 AM57 °FPassing clouds.8 mph23%30.36 "HgN/A
10:30 AM54 °FSunny.9 mph28%30.39 "Hg10 mi
10:00 AM52 °FSunny.10 mph32%30.39 "Hg10 mi
9:30 AM48 °FSunny.8 mph34%30.39 "Hg10 mi
9:00 AM46 °FSunny.No wind43%30.39 "Hg10 mi
8:30 AM41 °FSunny.No wind24%30.39 "Hg10 mi
8:00 AM34 °FSunny.5 mph56%30.39 "Hg10 mi
7:30 AM30 °FSunny.5 mph69%30.39 "Hg10 mi
7:00 AM30 °FSunny.7 mph64%30.39 "Hg10 mi
6:30 AM30 °FClear.6 mph64%30.39 "Hg10 mi
6:00 AM32 °FClear.3 mph64%30.36 "Hg10 mi
5:30 AM28 °FClear.6 mphN/A30.36 "HgN/A
5:00 AM34 °FClear.7 mphN/A30.36 "HgN/A
4:30 AM34 °FClear.7 mphN/A30.36 "HgN/A
4:00 AM39 °FClear.8 mph52%30.33 "HgN/A
3:30 AM39 °FClear.7 mph48%30.36 "HgN/A
3:00 AM36 °FClear.5 mphN/A30.36 "HgN/A
2:30 AM34 °FClear.6 mphN/A30.36 "HgN/A
2:00 AM36 °FClear.6 mphN/A30.39 "HgN/A
1:30 AM34 °FClear.6 mphN/A30.39 "HgN/A
1:00 AM36 °FClear.5 mphN/A30.42 "HgN/A
12:30 AM37 °FClear.5 mphN/A30.42 "HgN/A
12:00 AM36 °FClear.No windN/A30.42 "HgN/A
11:30 PM
Tue, Jul 28
37 °FClear.No windN/A30.42 "HgN/A
11:00 PM41 °FClear.5 mph39%30.42 "HgN/A
10:30 PM41 °FClear.2 mph39%30.45 "HgN/A
10:00 PM41 °FClear.No wind42%30.45 "HgN/A
9:30 PM45 °FClear.1 mph39%30.42 "HgN/A
9:00 PM45 °FClear.6 mph37%30.42 "HgN/A
8:30 PM46 °FClear.7 mph32%30.42 "HgN/A
8:00 PM48 °FClear.8 mph29%30.42 "HgN/A
7:30 PM48 °FClear.7 mph32%30.39 "HgN/A
7:00 PM52 °FClear.8 mph28%30.36 "HgN/A
6:30 PM55 °FClear.8 mph23%30.36 "HgN/A
6:00 PM59 °FClear.10 mph17%30.36 "HgN/A
5:30 PM61 °FSunny.12 mph15%30.36 "Hg10 mi
5:00 PM61 °FSunny.13 mph15%30.33 "Hg10 mi
4:30 PM63 °FSunny.15 mph15%30.33 "Hg10 mi
4:00 PM61 °FSunny.12 mph19%30.36 "Hg10 mi
3:30 PM63 °FSunny.16 mph19%30.36 "Hg10 mi
3:00 PM61 °FSunny.14 mph19%30.36 "Hg10 mi
2:30 PM61 °FSunny.12 mph20%30.36 "Hg10 mi
2:00 PM61 °FSunny.15 mph22%30.39 "Hg10 mi
Weather by CustomWeather, © 2015

See weather overviewHow to use our weather pages